Location: Whelan
(46.7841°N, 117.1166°W)
Time: 11:43:17
(UTC+00:00)

Envisat - Pass Details

Date: 21 April 2024
Orbit: 762 x 764 km, 98.3° (Epoch: 26 May)

Event Time Altitude Azimuth Distance (km) Brightness Sun altitude
Rises 10:00:40 0° 27° (NNE) 3,239 7.6 -24.0°
Reaches altitude 10° 10:03:39 10° 45° (NE) 2,307 6.5 -23.7°
Maximum altitude 10:07:13 19° 90° (E) 1,758 5.3 -23.3°
Drops below altitude 10° 10:10:46 10° 135° (SE) 2,294 5.4 -22.9°
Enters shadow 10:11:53 - 144° (SE) 2,616 5.6 -22.8°
